Location: Saint-Usage
(47.1052°N, 5.2587°E)
Time: 02:43:39
(UTC+02:00)

Nauka - Pass Details

Date: 25 September 2021
Orbit: 417 x 423 km, 51.6° (Epoch: 24 October)

Event Time Altitude Azimuth Distance (km) Brightness Sun altitude
Rises 21:43:14 0° 290° (WNW) 2,366 ? -22.8°
Reaches altitude 10° 21:45:25 10° 298° (WNW) 1,503 ? -23.1°
Enters shadow 21:47:58 36° 338° (NNW) 689 ? -23.5°
